User: anonymous   Login
Location: Peebles
(55.6412°N, 3.1714°W)
Time: 06:39:51
(UTC+00:00)
Language:

COSMOS 2251 DEB - Orbit

View from above orbital plane
View from above orbital plane
View from above satellite
View from above satellite

Ground track
Ground track

The orbit data is extracted from the following two-line orbital elements,

1 34116U 93036KM  22333.31712262  .00001510  00000-0  46433-3 0  9993
2 34116  74.0459  95.8730 0014403  80.6254 306.9833 14.42357583724372
Epoch (UTC): 29 November 2022 07:36:39
Eccentricity: 0.0014403
inclination: 74.0459°
perigee height: 740 km
apogee height: 761 km
right ascension of ascending node: 95.8730°
argument of perigee: 80.6254°
revolutions per day: 14.42357583
mean anomaly at epoch: 306.9833°
orbit number at epoch: 72437

The dashed part of the orbit path shows where the satellite is in the earth's shadow,  

DLR